Hourly Weather Roundup
Issued by NWS Central Illinois

Home | Current Version | Previous Version | Text Only | Print | Product List | Glossary Off
Versions: 1 2 3 4 5 6 7 8 9 10 11 12 13 14 15 16 17 18 19 20 21 22 23 24 25 26 27 28 29 30 31 32 33 34 35 36 37 38 39 40 41 42 43 44 45 46 47 48 49 50

700
NZUS43 KILX 020710
HWRILX

AREA WEATHER ROUNDUP
NATIONAL WEATHER SERVICE, LINCOLN IL
100 AM CST FRI DEC 02 2016


CITY           SKY/WX    TMP DP  RH WIND       PRES   REMARKS
BLOOMINGTON    CLOUDY    35  30  82 W10       30.08R WCI  27
CHAMPAIGN      CLOUDY    36  29  75 W6        30.08S WCI  31
DANVILLE       CLOUDY    35  30  80 SW6       30.05S WCI  30
DECATUR        CLOUDY    37  29  72 W6        30.10R WCI  32
EFFINGHAM      CLEAR     28  28 100 CALM      30.14R FOG
FLORA          PTCLDY    28  27  94 CALM      30.14S
GALESBURG      CLOUDY    36  31  83 SW7       30.08R WCI  30
JACKSONVILLE   CLOUDY    35  30  82 SW6       30.12R WCI  30
LACON          CLOUDY    37  31  80 W7        30.06R WCI  31
LAWRENCEVILLE  PTCLDY    29  27  92 SW5       30.13R WCI  24
LITCHFIELD     CLEAR     29  28  95 SW6       30.13R WCI  23
$$


CITY           SKY/WX    TMP DP  RH WIND       PRES   REMARKS
LINCOLN        CLOUDY    37  31  78 W5        30.10R WCI  33
MACOMB         CLOUDY    36  31  83 W7        30.11R WCI  30
MATTOON        CLOUDY    34  28  79 SW5       30.10R WCI  30
MT CARMEL AP   PTCLDY    30  28  93 CALM      30.13R
OLNEY-NOBLE AP CLEAR     28  28 100 CALM      30.14R FOG
PARIS          CLOUDY    36  32  87 W7        30.11R WCI  30
PEORIA         CLOUDY    37  30  75 W9        30.08R WCI  30
PONTIAC        CLOUDY    37  35  91 SW9       30.06S WCI  30
RANTOUL        CLOUDY    37  32  82 W7        30.08R WCI  31
SPRINGFIELD    CLOUDY    37  31  78 W5        30.11S WCI  33
TAYLORVILLE    PTCLDY    32  31  94 SW5       30.12R WCI  28
$$

...REGIONAL REPORTS...


CITY           SKY/WX    TMP DP  RH WIND       PRES   REMARKS
CHICAGO O`HARE DRIZZLE   37  31  78 W8        30.01R WCI  31
KANKAKEE       CLOUDY    37  32  82 W10       30.05S WCI  29
MOLINE         CLOUDY    38  31  76 W8        30.06R WCI  32
MOUNT STERLING CLOUDY    35  28  76 SW5       30.11R WCI  31
MOUNT VERNON   NOT AVBL
PITTSFIELD     CLOUDY    32  29  88 CALM      30.13R
QUINCY         CLOUDY    36  30  79 SW5       30.11R WCI  32
ROCKFORD       DRIZZLE   36  31  82 W6        30.04R WCI  31
$$


CITY           SKY/WX    TMP DP  RH WIND       PRES   REMARKS
BURLINGTON     CLOUDY    36  30  79 W6        30.08R WCI  31
CEDAR RAPIDS   CLOUDY    34  34 100 W8        30.05R WCI  27
DES MOINES     FLURRIES  37  30  75 NW6       30.09R WCI  32
KIRKSVILLE     MOCLDY    33  28  81 SW3       30.12R
OTTUMWA        CLOUDY    36  28  73 W8        30.07S WCI  30
ST LOUIS       CLEAR     31  25  78 SW3       30.15R
$$


CITY           SKY/WX    TMP DP  RH WIND       PRES   REMARKS
TERRE HAUTE    CLOUDY    37  29  72 W6        30.11R WCI  32
EVANSVILLE     CLEAR     30  27  88 CALM      30.15R
INDIANAPOLIS   CLOUDY    36  28  73 W12       30.08R WCI  28
LAFAYETTE      CLOUDY    36  30  79 SW8       30.07R WCI  30
MADISON        CLOUDY    35  31  85 VRB5      29.98R WCI  31
MILWAUKEE      DRIZZLE   38  32  79 W7        29.96R WCI  33
$$






USA.gov is the U.S. government's official web portal to all federal, state and local government web resources and services.